Location: Riverside Cemetery
(38.3047°N, 99.7773°W)
Time: 07:45:58
(UTC+00:00)

Cosmos 2219 Rocket - Pass Details

Date: 19 September 2020
Orbit: 827 x 847 km, 71.0° (Epoch: 22 October)

Event Time Altitude Azimuth Distance (km) Brightness Sun altitude
Rises 11:39:46 0° 173° (S) 3,376 5.3 -9.6°
Reaches altitude 10° 11:42:26 10° 163° (SSE) 2,449 4.7 -9.1°
Maximum altitude 11:47:18 31° 103° (ESE) 1,443 4.3 -8.1°
Drops below altitude 10° 11:52:12 10° 43° (NE) 2,472 5.5 -7.2°
Sets 11:54:54 0° 34° (NNE) 3,413 6.0 -6.7°
